Weather History for EGPN - March, 2013

Change the Weather History Date:

Wednesday, March 6, 2013

  Actual Average Record
Temperature  
Mean Temperature 42 °F -  
Max Temperature 42 °F 47 °F 57 °F (2015)
Min Temperature 41 °F 39 °F 28 °F (2001)
Degree Days  
Heating Degree Days 24    
Moisture  
Dew Point 37 °F    
Average Humidity 83    
Maximum Humidity 87    
Minimum Humidity 81    
Precipitation  
Precipitation 0.00 in - - ()
Sea Level Pressure  
Sea Level Pressure 29.72 in    
Wind  
Wind Speed 9 mph ()    
Max Wind Speed 13 mph    
Max Gust Speed -    
Visibility 3.5 miles    
Events      
Averages and records for this station are not official NWS values.
T = Trace of Precipitation, MM = Missing Value Source: Averaged Metar Reports

Daily Weather History Graph

Daily Weather History Graph

Search for Another Location

Airport or City:

Trip Planner

Search our weather history database for the weather conditions in past years. The results will help you decide how hot, cold, wet, or windy it might be!

Date:

Astronomy

Mar. 06, 2013 Rise Set
Actual Time 6:51 AM GMT 5:56 PM GMT
Civil Twilight 6:13 AM GMT 6:34 PM GMT
Nautical Twilight 5:30 AM GMT 7:17 PM GMT
Astronomical Twilight 4:45 AM GMT 8:02 PM GMT
Moon 3:38 AM GMT (3/6) 11:33 AM GMT (3/6)
Length of Visible Light 12h 20m
Length of Day
11h 05m
Waning Crescent, 32% of the Moon is Illuminated
Mar 6
Waning Crescent
Mar 11
New
Mar 19
First Quarter
Mar 27
Full
Apr 3
Last Quarter

Hourly Weather History & Observations

Time (GMT) Temp. Windchill Dew Point Humidity Pressure Visibility Wind Dir Wind Speed Gust Speed Precip Events Conditions
6:20 AM 41.0 °F 35.8 °F 35.6 °F 81% 29.71 in 5.0 mi NE 8.1 mph - N/A   Mostly Cloudy
6:50 AM 41.0 °F 35.8 °F 35.6 °F 81% 29.71 in 5.0 mi ENE 8.1 mph - N/A   Mostly Cloudy
7:20 AM 41.0 °F 36.4 °F 35.6 °F 81% 29.71 in 5.0 mi ENE 6.9 mph - N/A   Mostly Cloudy
7:50 AM 41.0 °F 35.8 °F 35.6 °F 81% 29.71 in 5.0 mi ENE 8.1 mph - N/A   Mostly Cloudy
8:20 AM 41.0 °F 34.3 °F 35.6 °F 81% 29.74 in 5.0 mi ENE 11.5 mph - N/A   Mostly Cloudy
8:50 AM 41.0 °F 34.7 °F 35.6 °F 81% 29.74 in 5.0 mi ENE 10.4 mph - N/A   Mostly Cloudy
9:20 AM 41.0 °F 35.8 °F 35.6 °F 81% 29.74 in 5.0 mi East 8.1 mph - N/A   Mostly Cloudy
9:50 AM 41.0 °F 34.7 °F 35.6 °F 81% 29.74 in 5.0 mi East 10.4 mph - N/A   Mostly Cloudy
10:20 AM 41.0 °F 34.3 °F 35.6 °F 81% 29.74 in 4.3 mi ENE 11.5 mph - N/A   Mostly Cloudy
10:50 AM 41.0 °F 35.8 °F 37.4 °F 87% 29.74 in 3.7 mi ENE 8.1 mph - N/A   Mostly Cloudy
11:20 AM 41.0 °F 35.2 °F 37.4 °F 87% 29.74 in 3.1 mi ENE 9.2 mph - N/A   Mostly Cloudy
11:50 AM 41.0 °F 35.2 °F 37.4 °F 87% 29.74 in 2.5 mi ENE 9.2 mph - N/A   Haze
12:50 PM 42.8 °F 38.0 °F 39.2 °F 87% 29.74 in 2.5 mi ENE 8.1 mph - N/A   Haze
1:20 PM 42.8 °F 36.6 °F 39.2 °F 87% 29.74 in 2.5 mi East 11.5 mph - N/A   Haze
1:50 PM 42.8 °F 36.2 °F 39.2 °F 87% 29.71 in 2.5 mi East 12.7 mph - N/A   Haze
2:20 PM 42.8 °F 36.6 °F 39.2 °F 87% 29.71 in 2.5 mi ENE 11.5 mph - N/A   Haze
2:50 PM 42.8 °F 37.0 °F 37.4 °F 81% 29.71 in 2.5 mi ENE 10.4 mph - N/A   Haze
3:20 PM 42.8 °F 36.6 °F 39.2 °F 87% 29.71 in 2.5 mi ENE 11.5 mph - N/A   Haze
3:50 PM 42.8 °F 36.2 °F 39.2 °F 87% 29.71 in 2.5 mi ENE 12.7 mph - N/A   Haze
4:20 PM 42.8 °F 36.6 °F 39.2 °F 87% 29.71 in 2.5 mi ENE 11.5 mph - N/A   Haze
4:50 PM 42.8 °F 37.0 °F 37.4 °F 81% 29.71 in 2.5 mi ENE 10.4 mph - N/A   Haze
5:20 PM 42.8 °F 37.0 °F 37.4 °F 81% 29.71 in 2.5 mi ENE 10.4 mph - N/A   Haze
5:50 PM 42.8 °F 37.0 °F 37.4 °F 81% 29.71 in 2.5 mi ENE 10.4 mph - N/A   Haze
6:20 PM 42.8 °F 36.2 °F 37.4 °F 81% 29.71 in 3.1 mi East 12.7 mph - N/A   Haze
6:50 PM 42.8 °F 37.0 °F 37.4 °F 81% 29.71 in 3.1 mi East 10.4 mph - N/A   Haze
7:20 PM 42.8 °F 37.0 °F 37.4 °F 81% 29.71 in 3.1 mi ENE 10.4 mph - N/A   Haze
7:50 PM 42.8 °F 37.0 °F 37.4 °F 81% 29.71 in 3.1 mi ENE 10.4 mph - N/A   Haze
8:20 PM 42.8 °F 37.0 °F 37.4 °F 81% 29.71 in 3.7 mi East 10.4 mph - N/A   Haze
8:50 PM 42.8 °F 38.0 °F 37.4 °F 81% 29.71 in 3.7 mi ENE 8.1 mph - N/A   Haze
9:20 PM 42.8 °F 37.5 °F 39.2 °F 87% 29.71 in 3.7 mi ENE 9.2 mph - N/A   Haze
9:50 PM 41.0 °F 34.7 °F 37.4 °F 87% 29.71 in 3.7 mi ENE 10.4 mph - N/A   Haze